| time (UTC) | temp F | wind direction | speed knots | gust knots | rain 1hr in | rain 24hr in | rain mn in | humidity % | barometer mb |
| 20260510214004 | 53 | 18 | 0.9 | 1.7 | 0.00 | 0.00 | 0.00 | 74 | 1023.3 |
| 20260510213504 | 53 | 27 | 0.9 | 1.7 | 0.00 | 0.00 | 0.00 | 74 | 1023.3 |
| 20260510213004 | 53 | 3 | 0.9 | 2.6 | 0.00 | 0.00 | 0.00 | 73 | 1023.3 |
| 20260510212504 | 53 | 341 | 0.9 | 2.6 | 0.00 | 0.00 | 0.00 | 73 | 1023.3 |
| 20260510212004 | 53 | 351 | 0.9 | 2.6 | 0.00 | 0.00 | 0.00 | 72 | 1023.3 |
| 20260510211505 | 53 | 12 | 1.7 | 3.5 | 0.00 | 0.00 | 0.00 | 72 | 1023.3 |
| 20260510210505 | 53 | 357 | 0.9 | 2.6 | 0.00 | 0.00 | 0.00 | 71 | 1023.3 |
| 20260510210011 | 53 | 2 | 0.9 | 2.6 | 0.00 | 0.00 | 0.00 | 71 | 1023.3 |
| 20260510205504 | 53 | 354 | 1.7 | 3.5 | 0.00 | 0.00 | 0.00 | 71 | 1023.3 |
| 20260510205005 | 54 | 7 | 1.7 | 3.5 | 0.00 | 0.00 | 0.00 | 71 | 1023.3 |
| 20260510204504 | 54 | 10 | 1.7 | 2.6 | 0.00 | 0.00 | 0.00 | 70 | 1023.3 |
| 20260510204004 | 54 | 358 | 1.7 | 2.6 | 0.00 | 0.00 | 0.00 | 69 | 1023.3 |
| 20260510202504 | 54 | 11 | 1.7 | 2.6 | 0.00 | 0.00 | 0.00 | 65 | 1023.3 |
| 20260510202004 | 55 | 6 | 1.7 | 3.5 | 0.00 | 0.00 | 0.00 | 65 | 1023.3 |
| 20260510201004 | 55 | 3 | 1.7 | 2.6 | 0.00 | 0.00 | 0.00 | 63 | 1023.3 |
| 20260510200504 | 56 | 6 | 1.7 | 2.6 | 0.00 | 0.00 | 0.00 | 63 | 1023.3 |
| 20260510200007 | 56 | 356 | 1.7 | 2.6 | 0.00 | 0.00 | 0.00 | 63 | 1023.3 |
| 20260510195004 | 56 | 23 | 0.9 | 2.6 | 0.00 | 0.00 | 0.00 | 62 | 1023.3 |
| 20260510194504 | 56 | 40 | 0.9 | 2.6 | 0.00 | 0.00 | 0.00 | 62 | 1023.3 |
| 20260510193504 | 57 | 29 | 1.7 | 2.6 | 0.00 | 0.00 | 0.00 | 62 | 1023.3 |
| 20260510193005 | 57 | 43 | 2.6 | 2.6 | 0.00 | 0.00 | 0.00 | 60 | 1023.3 |
| 20260510192504 | 57 | 68 | 2.6 | 3.5 | 0.00 | 0.00 | 0.00 | 60 | 1023.3 |
| 20260510192003 | 57 | 61 | 2.6 | 3.5 | 0.00 | 0.00 | 0.00 | 60 | 1023.3 |
| 20260510191504 | 57 | 57 | 1.7 | 3.5 | 0.00 | 0.00 | 0.00 | 60 | 1023.3 |
| 20260510190504 | 57 | 58 | 2.6 | 5.2 | 0.00 | 0.00 | 0.00 | 61 | 1023.3 |
| 20260510190006 | 58 | 68 | 2.6 | 4.3 | 0.00 | 0.00 | 0.00 | 60 | 1023.3 |
| 20260510185503 | 58 | 69 | 3.5 | 5.2 | 0.00 | 0.00 | 0.00 | 60 | 1023.3 |
| 20260510185004 | 58 | 66 | 3.5 | 5.2 | 0.00 | 0.00 | 0.00 | 59 | 1023.3 |
| 20260510184505 | 58 | 66 | 3.5 | 5.2 | 0.00 | 0.00 | 0.00 | 60 | 1023.3 |
| 20260510184006 | 58 | 58 | 2.6 | 4.3 | 0.00 | 0.00 | 0.00 | 60 | 1023.3 |
| 20260510183506 | 58 | 71 | 3.5 | 7.0 | 0.00 | 0.00 | 0.00 | 60 | 1023.3 |
| 20260510183005 | 58 | 94 | 4.3 | 7.0 | 0.00 | 0.00 | 0.00 | 59 | 1023.3 |
| 20260510182505 | 58 | 93 | 4.3 | 7.0 | 0.00 | 0.00 | 0.00 | 59 | 1023.3 |
| 20260510182006 | 58 | 89 | 3.5 | 5.2 | 0.00 | 0.00 | 0.00 | 60 | 1023.3 |
| 20260510181005 | 58 | 82 | 4.3 | 7.0 | 0.00 | 0.00 | 0.00 | 59 | 1023.3 |
| 20260510180505 | 59 | 89 | 6.1 | 8.7 | 0.00 | 0.00 | 0.00 | 59 | 1023.3 |
| 20260510180008 | 59 | 84 | 5.2 | 8.7 | 0.00 | 0.00 | 0.00 | 59 | 1023.3 |
| 20260510175505 | 58 | 71 | 4.3 | 6.1 | 0.00 | 0.00 | 0.00 | 59 | 1023.3 |
| 20260510175005 | 59 | 75 | 5.2 | 8.7 | 0.00 | 0.00 | 0.00 | 59 | 1023.3 |
| 20260510174505 | 59 | 69 | 5.2 | 8.7 | 0.00 | 0.00 | 0.00 | 59 | 1023.3 |
| 20260510173505 | 59 | 72 | 5.2 | 7.8 | 0.00 | 0.00 | 0.00 | 58 | 1023.3 |
| 20260510173006 | 59 | 84 | 5.2 | 7.8 | 0.00 | 0.00 | 0.00 | 57 | 1023.3 |
| 20260510172005 | 60 | 59 | 5.2 | 9.6 | 0.00 | 0.00 | 0.00 | 57 | 1023.3 |
| 20260510171505 | 60 | 85 | 6.1 | 10.4 | 0.00 | 0.00 | 0.00 | 56 | 1023.3 |
| 20260510171006 | 60 | 82 | 5.2 | 10.4 | 0.00 | 0.00 | 0.00 | 56 | 1023.3 |
| 20260510165506 | 61 | 74 | 6.1 | 11.3 | 0.00 | 0.00 | 0.00 | 55 | 1023.3 |
| 20260510164506 | 61 | 57 | 7.0 | 9.6 | 0.00 | 0.00 | 0.00 | 55 | 1023.3 |
| 20260510163505 | 60 | 70 | 7.8 | 12.2 | 0.00 | 0.00 | 0.00 | 56 | 1023.3 |
| 20260510163005 | 60 | 68 | 7.8 | 13.9 | 0.00 | 0.00 | 0.00 | 56 | 1023.3 |
| 20260510162505 | 60 | 60 | 8.7 | 13.9 | 0.00 | 0.00 | 0.00 | 56 | 1023.3 |
| 20260510161505 | 61 | 80 | 7.0 | 13.0 | 0.00 | 0.00 | 0.00 | 56 | 1023.3 |
| 20260510161005 | 61 | 80 | 6.1 | 10.4 | 0.00 | 0.00 | 0.00 | 56 | 1023.3 |
| 20260510160505 | 61 | 80 | 7.0 | 10.4 | 0.00 | 0.00 | 0.00 | 56 | 1023.3 |
| 20260510160007 | 60 | 62 | 7.0 | 9.6 | 0.00 | 0.00 | 0.00 | 58 | 1023.3 |
| 20260510155505 | 60 | 56 | 7.0 | 10.4 | 0.00 | 0.00 | 0.00 | 59 | 1023.3 |
| 20260510154505 | 60 | 49 | 7.0 | 10.4 | 0.00 | 0.00 | 0.00 | 59 | 1023.3 |
| 20260510154005 | 60 | 52 | 5.2 | 7.8 | 0.00 | 0.00 | 0.00 | 59 | 1023.3 |
| 20260510153505 | 60 | 66 | 5.2 | 8.7 | 0.00 | 0.00 | 0.00 | 59 | 1023.3 |
| 20260510152505 | 60 | 75 | 5.2 | 11.3 | 0.00 | 0.00 | 0.00 | 59 | 1023.3 |
| 20260510152005 | 60 | 72 | 6.1 | 11.3 | 0.00 | 0.00 | 0.00 | 59 | 1023.3 |
| 20260510151505 | 60 | 70 | 6.1 | 9.6 | 0.00 | 0.00 | 0.00 | 59 | 1024.4 |
| 20260510150505 | 60 | 65 | 6.1 | 11.3 | 0.00 | 0.00 | 0.00 | 57 | 1024.4 |
| 20260510150007 | 61 | 67 | 6.1 | 11.3 | 0.00 | 0.00 | 0.00 | 57 | 1024.4 |
| 20260510145505 | 61 | 66 | 5.2 | 9.6 | 0.00 | 0.00 | 0.00 | 57 | 1024.4 |
| 20260510145005 | 61 | 61 | 7.0 | 11.3 | 0.00 | 0.00 | 0.00 | 57 | 1024.4 |
| 20260510143505 | 62 | 72 | 7.8 | 13.0 | 0.00 | 0.00 | 0.00 | 56 | 1024.4 |
| 20260510143005 | 62 | 64 | 8.7 | 13.0 | 0.00 | 0.00 | 0.00 | 55 | 1024.4 |
| 20260510142504 | 63 | 51 | 8.7 | 11.3 | 0.00 | 0.00 | 0.00 | 55 | 1024.4 |
| 20260510142006 | 63 | 60 | 7.8 | 11.3 | 0.00 | 0.00 | 0.00 | 55 | 1024.4 |
| 20260510141506 | 63 | 70 | 7.0 | 11.3 | 0.00 | 0.00 | 0.00 | 54 | 1024.4 |
| 20260510141005 | 63 | 82 | 7.0 | 11.3 | 0.00 | 0.00 | 0.00 | 53 | 1024.4 |
| 20260510140505 | 64 | 73 | 7.0 | 9.6 | 0.00 | 0.00 | 0.00 | 53 | 1024.4 |
| 20260510140008 | 64 | 65 | 7.0 | 11.3 | 0.00 | 0.00 | 0.00 | 53 | 1024.4 |
| 20260510135505 | 63 | 66 | 7.0 | 11.3 | 0.00 | 0.00 | 0.00 | 53 | 1024.4 |
| 20260510134505 | 62 | 47 | 7.0 | 11.3 | 0.00 | 0.00 | 0.00 | 56 | 1024.4 |
| 20260510134005 | 62 | 62 | 7.0 | 11.3 | 0.00 | 0.00 | 0.00 | 57 | 1024.4 |
| 20260510133505 | 62 | 72 | 6.1 | 10.4 | 0.00 | 0.00 | 0.00 | 57 | 1024.4 |
| 20260510133005 | 62 | 71 | 6.1 | 7.8 | 0.00 | 0.00 | 0.00 | 57 | 1024.4 |
| 20260510132005 | 61 | 76 | 6.1 | 9.6 | 0.00 | 0.00 | 0.00 | 58 | 1024.4 |
| 20260510131505 | 61 | 68 | 7.8 | 10.4 | 0.00 | 0.00 | 0.00 | 58 | 1024.4 |
| 20260510130007 | 61 | 47 | 7.8 | 13.0 | 0.00 | 0.00 | 0.00 | 58 | 1024.4 |
| 20260510125005 | 62 | 69 | 9.6 | 13.0 | 0.00 | 0.00 | 0.00 | 56 | 1024.4 |
| 20260510124505 | 62 | 57 | 9.6 | 13.0 | 0.00 | 0.00 | 0.00 | 55 | 1024.4 |
| 20260510124005 | 63 | 44 | 8.7 | 11.3 | 0.00 | 0.00 | 0.00 | 56 | 1024.4 |
| 20260510123005 | 64 | 84 | 8.7 | 11.3 | 0.00 | 0.00 | 0.00 | 53 | 1024.4 |
| 20260510122504 | 65 | 100 | 8.7 | 11.3 | 0.00 | 0.00 | 0.00 | 51 | 1024.4 |
| 20260510122005 | 66 | 74 | 7.8 | 11.3 | 0.00 | 0.00 | 0.00 | 50 | 1024.4 |
| 20260510121505 | 67 | 63 | 7.8 | 12.2 | 0.00 | 0.00 | 0.00 | 49 | 1024.4 |
| 20260510121006 | 67 | 71 | 8.7 | 12.2 | 0.00 | 0.00 | 0.00 | 50 | 1024.4 |
| 20260510120504 | 67 | 90 | 5.2 | 5.2 | 0.00 | 0.00 | 0.00 | 49 | 1024.4 |
| 20260510120007 | 66 | 22 | 9.6 | 9.6 | 0.00 | 0.00 | 0.00 | 50 | 1024.4 |
| 20260510115005 | 65 | 22 | 9.6 | 9.6 | 0.00 | 0.00 | 0.00 | 52 | 1024.4 |
| 20260510114505 | 66 | 32 | 10.4 | 13.9 | 0.00 | 0.00 | 0.00 | 49 | 1024.4 |
| 20260510113505 | 67 | 56 | 11.3 | 13.9 | 0.00 | 0.00 | 0.00 | 48 | 1024.4 |
| 20260510113006 | 67 | 66 | 10.4 | 14.8 | 0.00 | 0.00 | 0.00 | 48 | 1024.4 |
| 20260510112505 | 66 | 76 | 10.4 | 14.8 | 0.00 | 0.00 | 0.00 | 50 | 1024.4 |
| 20260510112006 | 65 | 83 | 11.3 | 16.5 | 0.00 | 0.00 | 0.00 | 50 | 1024.4 |
| 20260510111505 | 66 | 72 | 13.9 | 16.5 | 0.00 | 0.00 | 0.00 | 51 | 1024.4 |
| 20260510111006 | 65 | 45 | 11.3 | 11.3 | 0.00 | 0.00 | 0.00 | 50 | 1024.4 |
| 20260510110505 | 66 | 66 | 13.0 | 17.4 | 0.00 | 0.00 | 0.00 | 50 | 1024.4 |
| 20260510110007 | 66 | 73 | 12.2 | 17.4 | 0.00 | 0.00 | 0.00 | 49 | 1024.4 |
| 20260510104505 | 65 | 65 | 10.4 | 12.2 | 0.00 | 0.00 | 0.00 | 52 | 1024.4 |
| 20260510104005 | 65 | 83 | 7.8 | 9.6 | 0.00 | 0.00 | 0.00 | 51 | 1024.4 |
| 20260510103505 | 65 | 83 | 7.8 | 9.6 | 0.00 | 0.00 | 0.00 | 51 | 1024.4 |
| 20260510102505 | 64 | 158 | 5.2 | 5.2 | 0.00 | 0.00 | 0.00 | 53 | 1024.4 |
| 20260510102004 | 64 | 158 | 5.2 | 5.2 | 0.00 | 0.00 | 0.00 | 53 | 1024.4 |
| 20260510101505 | 63 | 45 | 5.2 | 5.2 | 0.00 | 0.00 | 0.00 | 53 | 1024.4 |
| 20260510101005 | 63 | 45 | 5.2 | 5.2 | 0.00 | 0.00 | 0.00 | 54 | 1024.4 |
| 20260510100008 | 62 | 45 | 5.2 | 5.2 | 0.00 | 0.00 | 0.00 | 56 | 1024.4 |
| 20260510095505 | 62 | 64 | 7.0 | 12.2 | 0.00 | 0.00 | 0.00 | 57 | 1024.4 |
| 20260510094005 | 62 | 99 | 7.8 | 9.6 | 0.00 | 0.00 | 0.00 | 57 | 1024.4 |
| 20260510093005 | 62 | 68 | 12.2 | 12.2 | 0.00 | 0.00 | 0.00 | 56 | 1024.4 |
| 20260510092505 | 62 | 68 | 12.2 | 12.2 | 0.00 | 0.00 | 0.00 | 55 | 1024.4 |
| 20260510092005 | 62 | 68 | 12.2 | 12.2 | 0.00 | 0.00 | 0.00 | 55 | 1024.4 |
| 20260510091505 | 62 | 47 | 10.4 | 12.2 | 0.00 | 0.00 | 0.00 | 54 | 1024.4 |
| 20260510090504 | 62 | 60 | 11.3 | 15.6 | 0.00 | 0.00 | 0.00 | 54 | 1024.4 |
| 20260510085504 | 62 | 91 | 11.3 | 15.6 | 0.00 | 0.00 | 0.00 | 54 | 1024.4 |
| 20260510085005 | 62 | 108 | 13.0 | 18.2 | 0.00 | 0.00 | 0.00 | 55 | 1024.4 |
| 20260510084504 | 62 | 100 | 13.0 | 18.2 | 0.00 | 0.00 | 0.00 | 55 | 1024.4 |
| 20260510084004 | 61 | 68 | 9.6 | 14.8 | 0.00 | 0.00 | 0.00 | 56 | 1024.4 |
| 20260510083004 | 60 | 86 | 8.7 | 12.2 | 0.00 | 0.00 | 0.00 | 59 | 1024.4 |
| 20260510082505 | 60 | 90 | 7.0 | 12.2 | 0.00 | 0.00 | 0.00 | 58 | 1024.4 |
| 20260510082005 | 60 | 99 | 6.1 | 7.8 | 0.00 | 0.00 | 0.00 | 58 | 1024.4 |
| 20260510081504 | 60 | 90 | 6.1 | 6.1 | 0.00 | 0.00 | 0.00 | 57 | 1025.4 |
| 20260510081005 | 60 | 99 | 7.0 | 9.6 | 0.00 | 0.00 | 0.00 | 58 | 1025.4 |
| 20260510080505 | 61 | 107 | 8.7 | 9.6 | 0.00 | 0.00 | 0.00 | 56 | 1025.4 |
| 20260510075504 | 61 | 107 | 10.4 | 11.3 | 0.00 | 0.00 | 0.00 | 56 | 1025.4 |
| 20260510074505 | 60 | 73 | 13.0 | 16.5 | 0.00 | 0.00 | 0.00 | 58 | 1025.4 |
| 20260510073004 | 58 | 97 | 11.3 | 13.9 | 0.00 | 0.00 | 0.00 | 61 | 1024.4 |
| 20260510072504 | 59 | 112 | 13.9 | 13.9 | 0.00 | 0.00 | 0.00 | 58 | 1024.4 |
| 20260510071005 | 60 | 90 | 8.7 | 9.6 | 0.00 | 0.00 | 0.00 | 58 | 1024.4 |
| 20260510070504 | 59 | 79 | 9.6 | 12.2 | 0.00 | 0.00 | 0.00 | 59 | 1024.4 |
| 20260510070006 | 59 | 76 | 9.6 | 12.2 | 0.00 | 0.00 | 0.00 | 59 | 1024.4 |
| 20260510065504 | 59 | 48 | 7.8 | 12.2 | 0.00 | 0.00 | 0.00 | 59 | 1024.4 |
| 20260510065004 | 59 | 59 | 7.8 | 10.4 | 0.00 | 0.00 | 0.00 | 60 | 1024.4 |
| 20260510064505 | 59 | 90 | 8.7 | 10.4 | 0.00 | 0.00 | 0.00 | 60 | 1024.4 |
| 20260510064005 | 59 | 86 | 7.8 | 10.4 | 0.00 | 0.00 | 0.00 | 60 | 1024.4 |
| 20260510063505 | 58 | 53 | 6.1 | 7.0 | 0.00 | 0.00 | 0.00 | 59 | 1024.4 |
| 20260510063005 | 59 | 57 | 6.1 | 7.0 | 0.00 | 0.00 | 0.00 | 59 | 1024.4 |
| 20260510062504 | 59 | 68 | 5.2 | 5.2 | 0.00 | 0.00 | 0.00 | 59 | 1024.4 |
| 20260510062004 | 58 | 80 | 6.1 | 7.8 | 0.00 | 0.00 | 0.00 | 59 | 1024.4 |
| 20260510061004 | 58 | 81 | 6.1 | 7.8 | 0.00 | 0.00 | 0.00 | 60 | 1024.4 |
| 20260510060505 | 58 | 68 | 6.1 | 6.1 | 0.00 | 0.00 | 0.00 | 61 | 1024.4 |
| 20260510060006 | 56 | 68 | 7.8 | 7.8 | 0.00 | 0.00 | 0.00 | 63 | 1024.4 |
| 20260510055505 | 56 | 68 | 7.8 | 7.8 | 0.00 | 0.00 | 0.00 | 66 | 1024.4 |
| 20260510054504 | 51 | 68 | 7.8 | 7.8 | 0.00 | 0.00 | 0.00 | 76 | 1024.4 |
| 20260510054004 | 51 | 68 | 7.8 | 7.8 | 0.00 | 0.00 | 0.00 | 76 | 1024.4 |
| 20260510053505 | 51 | 68 | 7.8 | 7.8 | 0.00 | 0.00 | 0.00 | 76 | 1024.4 |
| 20260510053004 | 51 | 68 | 7.8 | 7.8 | 0.00 | 0.00 | 0.00 | 77 | 1024.4 |
| 20260510052504 | 51 | 68 | 7.8 | 7.8 | 0.00 | 0.00 | 0.00 | 77 | 1024.4 |
| 20260510052004 | 51 | 68 | 7.8 | 7.8 | 0.00 | 0.00 | 0.00 | 78 | 1024.4 |
| 20260510051504 | 51 | 68 | 7.8 | 7.8 | 0.00 | 0.00 | 0.00 | 78 | 1024.4 |
| 20260510051005 | 51 | 68 | 7.8 | 7.8 | 0.00 | 0.00 | 0.00 | 78 | 1024.4 |
| 20260510050505 | 52 | 68 | 7.8 | 7.8 | 0.00 | 0.00 | 0.00 | 79 | 1024.4 |
| 20260510050007 | 51 | 68 | 7.8 | 7.8 | 0.00 | 0.00 | 0.00 | 79 | 1024.4 |
| 20260510045005 | 52 | 78 | 7.8 | 7.8 | 0.00 | 0.00 | 0.00 | 80 | 1024.4 |
| 20260510044505 | 52 | 89 | 7.8 | 7.8 | 0.00 | 0.00 | 0.00 | 80 | 1024.4 |
| 20260510044004 | 52 | 68 | 7.0 | 7.0 | 0.00 | 0.00 | 0.00 | 80 | 1024.4 |
| 20260510043506 | 52 | 68 | 7.0 | 7.0 | 0.00 | 0.00 | 0.00 | 80 | 1024.4 |
| 20260510042504 | 52 | 68 | 7.0 | 7.0 | 0.00 | 0.00 | 0.00 | 80 | 1024.4 |
| 20260510042005 | 52 | 87 | 6.1 | 7.8 | 0.00 | 0.00 | 0.00 | 80 | 1024.4 |
| 20260510041504 | 52 | 95 | 6.1 | 7.8 | 0.00 | 0.00 | 0.00 | 80 | 1024.4 |
| 20260510041005 | 52 | 99 | 5.2 | 6.1 | 0.00 | 0.00 | 0.00 | 79 | 1024.4 |
| 20260510040506 | 53 | 86 | 6.1 | 7.8 | 0.00 | 0.00 | 0.00 | 79 | 1024.4 |
| 20260510040006 | 53 | 80 | 6.1 | 7.8 | 0.00 | 0.00 | 0.00 | 79 | 1024.4 |
| 20260510035504 | 53 | 69 | 6.1 | 11.3 | 0.00 | 0.00 | 0.00 | 79 | 1024.4 |
| 20260510035004 | 53 | 66 | 6.1 | 11.3 | 0.00 | 0.00 | 0.00 | 79 | 1024.4 |
| 20260510034504 | 53 | 88 | 7.0 | 9.6 | 0.00 | 0.00 | 0.00 | 79 | 1024.4 |
| 20260510034004 | 53 | 98 | 7.8 | 9.6 | 0.00 | 0.00 | 0.00 | 78 | 1024.4 |
| 20260510033504 | 53 | 94 | 7.8 | 9.6 | 0.00 | 0.00 | 0.00 | 78 | 1024.4 |
| 20260510033005 | 54 | 103 | 5.2 | 6.1 | 0.00 | 0.00 | 0.00 | 78 | 1024.4 |
| 20260510032505 | 54 | 103 | 5.2 | 6.1 | 0.00 | 0.00 | 0.00 | 78 | 1024.4 |
| 20260510032004 | 54 | 100 | 4.3 | 6.1 | 0.00 | 0.00 | 0.00 | 78 | 1024.4 |
| 20260510031504 | 54 | 68 | 2.6 | 2.6 | 0.00 | 0.00 | 0.00 | 77 | 1024.4 |
| 20260510031004 | 54 | 55 | 3.5 | 5.2 | 0.00 | 0.00 | 0.00 | 78 | 1024.4 |
| 20260510025504 | 54 | 158 | 0.9 | 0.9 | 0.00 | 0.00 | 0.00 | 78 | 1024.4 |
| 20260510025004 | 55 | 68 | 0.9 | 0.9 | 0.00 | 0.00 | 0.00 | 78 | 1024.4 |
| 20260510024504 | 55 | 68 | 0.9 | 0.9 | 0.00 | 0.00 | 0.00 | 78 | 1024.4 |
| 20260510024005 | 55 | 68 | 1.7 | 2.6 | 0.00 | 0.00 | 0.00 | 78 | 1024.4 |
| 20260510023504 | 55 | 72 | 2.6 | 2.6 | 0.00 | 0.00 | 0.00 | 78 | 1024.4 |
| 20260510023005 | 55 | 61 | 2.6 | 2.6 | 0.00 | 0.00 | 0.00 | 78 | 1024.4 |
| 20260510022505 | 55 | 54 | 1.7 | 2.6 | 0.00 | 0.00 | 0.00 | 79 | 1024.4 |
| 20260510022004 | 55 | 47 | 1.7 | 2.6 | 0.00 | 0.00 | 0.00 | 79 | 1024.4 |
| 20260510021504 | 55 | 47 | 1.7 | 2.6 | 0.00 | 0.00 | 0.00 | 79 | 1024.4 |
| 20260510021004 | 55 | 74 | 3.5 | 4.3 | 0.00 | 0.00 | 0.00 | 79 | 1024.4 |
| 20260510020504 | 55 | 53 | 3.5 | 7.0 | 0.00 | 0.00 | 0.00 | 80 | 1024.4 |
| 20260510020006 | 55 | 53 | 3.5 | 7.0 | 0.00 | 0.00 | 0.00 | 80 | 1024.4 |
| 20260510015504 | 56 | 34 | 4.3 | 7.0 | 0.00 | 0.00 | 0.00 | 81 | 1024.4 |
| 20260510015004 | 56 | 49 | 4.3 | 7.0 | 0.00 | 0.00 | 0.00 | 81 | 1024.4 |
| 20260510014504 | 56 | 68 | 3.5 | 4.3 | 0.00 | 0.00 | 0.00 | 81 | 1024.4 |
| 20260510014004 | 56 | 50 | 4.3 | 6.1 | 0.00 | 0.00 | 0.00 | 81 | 1024.4 |
| 20260510012505 | 56 | 93 | 7.0 | 7.8 | 0.00 | 0.00 | 0.00 | 82 | 1024.4 |
| 20260510012004 | 56 | 86 | 5.2 | 7.8 | 0.00 | 0.00 | 0.00 | 82 | 1024.4 |
| 20260510011504 | 56 | 81 | 5.2 | 7.8 | 0.00 | 0.00 | 0.00 | 81 | 1024.4 |
| 20260510011004 | 56 | 77 | 7.0 | 8.7 | 0.00 | 0.00 | 0.00 | 81 | 1024.4 |
| 20260510010504 | 56 | 72 | 7.8 | 8.7 | 0.00 | 0.00 | 0.00 | 81 | 1024.4 |
| 20260510010006 | 57 | 67 | 7.0 | 9.6 | 0.00 | 0.00 | 0.00 | 81 | 1024.4 |
| 20260510005504 | 57 | 72 | 6.1 | 9.6 | 0.00 | 0.00 | 0.00 | 80 | 1024.4 |
| 20260510005004 | 57 | 97 | 4.3 | 9.6 | 0.00 | 0.00 | 0.00 | 80 | 1024.4 |
| 20260510004504 | 57 | 112 | 6.1 | 8.7 | 0.00 | 0.00 | 0.00 | 80 | 1024.4 |
| 20260510004004 | 57 | 96 | 7.0 | 8.7 | 0.00 | 0.00 | 0.00 | 80 | 1024.4 |
| 20260510003505 | 57 | 83 | 7.0 | 8.7 | 0.00 | 0.00 | 0.00 | 80 | 1024.4 |
| 20260510003005 | 57 | 68 | 6.1 | 7.8 | 0.00 | 0.00 | 0.00 | 80 | 1024.4 |
| 20260510002504 | 57 | 77 | 6.1 | 7.8 | 0.00 | 0.00 | 0.00 | 80 | 1024.4 |
| 20260510002004 | 57 | 78 | 6.1 | 7.8 | 0.00 | 0.00 | 0.00 | 80 | 1024.4 |
| 20260510001504 | 57 | 112 | 4.3 | 4.3 | 0.00 | 0.00 | 0.00 | 79 | 1024.4 |
| 20260510001004 | 58 | 111 | 3.5 | 3.5 | 0.00 | 0.00 | 0.00 | 79 | 1024.4 |
| 20260510000505 | 57 | 111 | 3.5 | 3.5 | 0.00 | 0.00 | 0.00 | 79 | 1024.4 |
| 20260510000006 | 57 | 111 | 3.5 | 3.5 | 0.00 | 0.00 | 0.00 | 79 | 1025.4 |
| 20260509235504 | 57 | 111 | 3.5 | 3.5 | 0.00 | 0.00 | 0.00 | 80 | 1025.4 |
| 20260509235004 | 57 | 111 | 3.5 | 3.5 | 0.00 | 0.00 | 0.00 | 80 | 1025.4 |
| 20260509234004 | 58 | 94 | 4.3 | 8.7 | 0.00 | 0.00 | 0.00 | 80 | 1025.4 |
| 20260509233504 | 58 | 68 | 7.0 | 8.7 | 0.00 | 0.00 | 0.00 | 80 | 1025.4 |
| 20260509233004 | 58 | 68 | 5.2 | 7.0 | 0.00 | 0.00 | 0.00 | 80 | 1025.4 |
| 20260509232504 | 58 | 68 | 5.2 | 7.0 | 0.00 | 0.00 | 0.00 | 81 | 1025.4 |
| 20260509232005 | 58 | 68 | 4.3 | 4.3 | 0.00 | 0.00 | 0.00 | 81 | 1025.4 |
| 20260509231004 | 58 | 68 | 5.2 | 5.2 | 0.00 | 0.00 | 0.00 | 80 | 1025.4 |
| 20260509230504 | 58 | 68 | 5.2 | 5.2 | 0.00 | 0.00 | 0.00 | 81 | 1025.4 |
| 20260509230010 | 58 | 68 | 5.2 | 5.2 | 0.00 | 0.00 | 0.00 | 81 | 1025.4 |
| 20260509225504 | 58 | 68 | 5.2 | 5.2 | 0.00 | 0.00 | 0.00 | 81 | 1025.4 |
| 20260509225004 | 58 | 1 | 3.5 | 3.5 | 0.00 | 0.00 | 0.00 | 81 | 1025.4 |
| 20260509224504 | 58 | 1 | 3.5 | 3.5 | 0.00 | 0.00 | 0.00 | 81 | 1025.4 |
| 20260509224005 | 58 | 1 | 3.5 | 3.5 | 0.00 | 0.00 | 0.00 | 81 | 1025.4 |
| 20260509223505 | 58 | 1 | 3.5 | 3.5 | 0.00 | 0.00 | 0.00 | 82 | 1025.4 |
| 20260509223004 | 58 | 1 | 3.5 | 3.5 | 0.00 | 0.00 | 0.00 | 82 | 1025.4 |
| 20260509222506 | 58 | 1 | 3.5 | 3.5 | 0.00 | 0.00 | 0.00 | 82 | 1025.4 |
| 20260509222006 | 58 | 1 | 3.5 | 3.5 | 0.00 | 0.00 | 0.00 | 82 | 1025.4 |
| 20260509221504 | 58 | 1 | 3.5 | 3.5 | 0.00 | 0.00 | 0.00 | 82 | 1025.4 |
| 20260509221004 | 58 | 1 | 3.5 | 3.5 | 0.00 | 0.00 | 0.00 | 82 | 1025.4 |
| 20260509220504 | 58 | 1 | 3.5 | 3.5 | 0.00 | 0.00 | 0.00 | 81 | 1025.4 |
| 20260509220006 | 58 | 1 | 3.5 | 3.5 | 0.00 | 0.00 | 0.00 | 81 | 1025.4 |
| 20260509215504 | 58 | 1 | 3.5 | 3.5 | 0.00 | 0.00 | 0.00 | 81 | 1025.4 |
| 20260509215004 | 58 | 1 | 3.5 | 3.5 | 0.00 | 0.00 | 0.00 | 81 | 1025.4 |
| 20260509214505 | 58 | 1 | 3.5 | 3.5 | 0.00 | 0.00 | 0.00 | 80 | 1025.4 |